IRIDIUM 32 [-]

Last updated on Mon Mar 11 2019 03:10:43 GMT+0000 (Coordinated Universal Time)

1 24945U 97051B 19069.51667833 .21575699 -12702-5 24766-3 0 9990 2 24945 86.3529 20.3101 0050471 74.5146 287.5413 16.44386180125289

Satellite not in orbit

IRIDIUM 32 [-]